When you browse on this site, cookies collect data to enhance your experience and personalize the content and advertising you see.
Visit our Privacy Policy to learn more. By continuing to use the site, you agree to this use of cookies and data.
  • în România
  • Lista ţărilor
  • Pe 7 zile
  • Temperatura apei
  • Meteo pe hartă
  • Widget-uri
  • user-avatar
    Intrare

    Meteo pe oră la Dundee

    Astăzi, 18 Februarie, Marţi

    Timp Temperatura Precipitaţii Vânt Presiune Umiditate
    00:00 -1°C° 0 mm 7 m/s 740 mmHg 82%
    01:00 -1°C° 0 mm 7 m/s 740 mmHg 84%
    02:00 -2°C° 0 mm 7 m/s 741 mmHg 86%
    03:00 -2°C° 0 mm 7 m/s 741 mmHg 87%
    04:00 -1°C° 0.1 mm 7 m/s 741 mmHg 89%
    05:00 -1°C° 0.1 mm 7 m/s 741 mmHg 91%
    06:00 -1°C° 0.1 mm 7 m/s 741 mmHg 93%
    07:00 -1°C° 0.2 mm 7 m/s 741 mmHg 93%
    08:00 0°C° 0.2 mm 7 m/s 741 mmHg 92%
    09:00 0°C° 0.2 mm 7 m/s 741 mmHg 92%
    10:00 +1°C° 0.1 mm 8 m/s 741 mmHg 83%
    11:00 +1°C° 0.1 mm 8 m/s 741 mmHg 73%
    12:00 +2°C° 0.1 mm 9 m/s 741 mmHg 64%
    13:00 +2°C° 0.5 mm 8 m/s 740 mmHg 72%
    14:00 +2°C° 0.5 mm 7 m/s 740 mmHg 80%
    15:00 +1°C° 0.5 mm 6 m/s 740 mmHg 88%
    16:00 -1°C° 0.2 mm 6 m/s 740 mmHg 87%
    17:00 -1°C° 0.2 mm 6 m/s 740 mmHg 86%
    18:00 -1°C° 0.2 mm 5 m/s 740 mmHg 84%
    19:00 -2°C° 0 mm 6 m/s 741 mmHg 83%
    20:00 -2°C° 0 mm 6 m/s 741 mmHg 81%
    21:00 -2°C° 0 mm 7 m/s 741 mmHg 80%
    22:00 -2°C° 0 mm 7 m/s 742 mmHg 79%
    23:00 -2°C° 0 mm 8 m/s 742 mmHg 78%

    Mâine, 19 Februarie, Miercuri

    Timp Temperatura Precipitaţii Vânt Presiune Umiditate
    00:00 -2°C° 0 mm 8 m/s 742 mmHg 77%
    01:00 -2°C° 0 mm 8 m/s 743 mmHg 78%
    02:00 -1°C° 0 mm 8 m/s 743 mmHg 78%
    03:00 -1°C° 0 mm 8 m/s 744 mmHg 79%
    04:00 -2°C° 0 mm 8 m/s 744 mmHg 78%
    05:00 -2°C° 0 mm 8 m/s 744 mmHg 78%
    06:00 -2°C° 0 mm 7 m/s 745 mmHg 77%
    07:00 -2°C° 0 mm 7 m/s 745 mmHg 77%
    08:00 -1°C° 0 mm 6 m/s 745 mmHg 77%
    09:00 0°C° 0 mm 5 m/s 746 mmHg 77%
    10:00 +1°C° 0 mm 6 m/s 745 mmHg 76%
    11:00 +1°C° 0 mm 6 m/s 745 mmHg 74%
    12:00 +2°C° 0 mm 6 m/s 745 mmHg 72%
    13:00 +2°C° 0 mm 6 m/s 744 mmHg 76%
    14:00 +2°C° 0 mm 5 m/s 743 mmHg 80%
    15:00 +2°C° 0 mm 5 m/s 742 mmHg 84%
    16:00 +2°C° 0.9 mm 5 m/s 740 mmHg 88%
    17:00 +2°C° 0.9 mm 5 m/s 738 mmHg 91%
    18:00 +3°C° 0.9 mm 6 m/s 737 mmHg 95%
    19:00 +3°C° 0.7 mm 6 m/s 736 mmHg 95%
    20:00 +4°C° 0.7 mm 6 m/s 736 mmHg 95%
    21:00 +5°C° 0.7 mm 6 m/s 735 mmHg 94%
    22:00 +6°C° 0 mm 5 m/s 735 mmHg 94%
    23:00 +5°C° 0 mm 4 m/s 735 mmHg 93%

    Poimâine, 20 Februarie, Joi

    Timp Temperatura Precipitaţii Vânt Presiune Umiditate
    00:00 +5°C° 0 mm 4 m/s 735 mmHg 93%
    01:00 +5°C° 0.3 mm 4 m/s 734 mmHg 94%
    02:00 +5°C° 0.3 mm 4 m/s 733 mmHg 94%
    03:00 +5°C° 0.3 mm 4 m/s 732 mmHg 95%
    04:00 +5°C° 0.9 mm 6 m/s 731 mmHg 93%
    05:00 +5°C° 0.9 mm 8 m/s 730 mmHg 90%
    06:00 +6°C° 0.9 mm 10 m/s 729 mmHg 87%
    07:00 +6°C° 0.1 mm 10 m/s 728 mmHg 85%
    08:00 +6°C° 0.1 mm 10 m/s 728 mmHg 83%
    09:00 +6°C° 0.1 mm 10 m/s 728 mmHg 81%
    10:00 +5°C° 0.2 mm 10 m/s 729 mmHg 78%
    11:00 +2°C° 0.2 mm 10 m/s 730 mmHg 75%
    12:00 +1°C° 0.2 mm 9 m/s 731 mmHg 71%
    13:00 +1°C° 0 mm 10 m/s 733 mmHg 67%
    14:00 +1°C° 0 mm 10 m/s 734 mmHg 62%
    15:00 +1°C° 0 mm 10 m/s 735 mmHg 57%
    16:00 0°C° 0 mm 9 m/s 736 mmHg 66%
    17:00 -1°C° 0 mm 9 m/s 736 mmHg 75%
    18:00 -2°C° 0 mm 8 m/s 737 mmHg 84%
    19:00 -2°C° 0 mm 8 m/s 737 mmHg 84%
    20:00 -1°C° 0 mm 8 m/s 738 mmHg 83%
    21:00 -1°C° 0 mm 7 m/s 739 mmHg 83%
    22:00 -1°C° 0 mm 8 m/s 740 mmHg 82%
    23:00 -1°C° 0 mm 8 m/s 741 mmHg 81%

    21 Februarie, Vineri

    Timp Temperatura Precipitaţii Vânt Presiune Umiditate
    00:00 -1°C° 0 mm 8 m/s 743 mmHg 81%
    01:00 -1°C° 0 mm 8 m/s 743 mmHg 80%
    02:00 -1°C° 0 mm 7 m/s 744 mmHg 80%
    03:00 -1°C° 0 mm 6 m/s 745 mmHg 80%
    04:00 -1°C° 0 mm 6 m/s 745 mmHg 83%
    05:00 -1°C° 0 mm 7 m/s 745 mmHg 87%
    06:00 -1°C° 0 mm 7 m/s 745 mmHg 90%
    13:00 +4°C° 0.6 mm 12 m/s 741 mmHg 85%
    14:00 +4°C° 0.6 mm 12 m/s 741 mmHg 86%
    15:00 +4°C° 0.6 mm 13 m/s 740 mmHg 86%
    16:00 +5°C° 1.1 mm 12 m/s 739 mmHg 87%
    17:00 +6°C° 1.1 mm 11 m/s 739 mmHg 88%
    18:00 +6°C° 1.1 mm 10 m/s 739 mmHg 88%
    19:00 +6°C° 0.5 mm 9 m/s 739 mmHg 87%
    20:00 +6°C° 0.5 mm 8 m/s 739 mmHg 85%
    21:00 +6°C° 0.5 mm 7 m/s 739 mmHg 84%
    22:00 +5°C° 0.1 mm 7 m/s 739 mmHg 83%
    23:00 +5°C° 0.1 mm 8 m/s 739 mmHg 82%

    22 Februarie, Sâmbătă

    Timp Temperatura Precipitaţii Vânt Presiune Umiditate
    00:00 +4°C° 0.1 mm 8 m/s 740 mmHg 81%
    01:00 +3°C° 0.4 mm 9 m/s 740 mmHg 82%
    02:00 +2°C° 0.4 mm 9 m/s 740 mmHg 84%
    03:00 +2°C° 0.4 mm 9 m/s 740 mmHg 85%
    04:00 +2°C° 0.5 mm 8 m/s 740 mmHg 87%
    05:00 +1°C° 0.5 mm 8 m/s 740 mmHg 88%
    06:00 +1°C° 0.5 mm 8 m/s 740 mmHg 89%
    07:00 +1°C° 0.2 mm 8 m/s 741 mmHg 88%
    08:00 +1°C° 0.2 mm 8 m/s 741 mmHg 87%
    09:00 +1°C° 0.2 mm 8 m/s 742 mmHg 86%
    10:00 +1°C° 0.3 mm 9 m/s 742 mmHg 84%
    11:00 +1°C° 0.3 mm 10 m/s 742 mmHg 83%
    12:00 +1°C° 0.3 mm 10 m/s 743 mmHg 81%
    13:00 +1°C° 0.3 mm 11 m/s 743 mmHg 80%
    14:00 +1°C° 0.3 mm 11 m/s 743 mmHg 79%
    15:00 +1°C° 0.3 mm 11 m/s 743 mmHg 78%
    16:00 +1°C° 0.1 mm 10 m/s 744 mmHg 79%
    17:00 0°C° 0.1 mm 9 m/s 744 mmHg 81%
    18:00 0°C° 0.1 mm 8 m/s 745 mmHg 82%
    19:00 -1°C° 0.1 mm 8 m/s 745 mmHg 86%
    20:00 -1°C° 0.1 mm 7 m/s 746 mmHg 89%
    21:00 -1°C° 0.1 mm 7 m/s 746 mmHg 92%
    22:00 -1°C° 0.1 mm 7 m/s 746 mmHg 92%
    23:00 -1°C° 0.1 mm 7 m/s 746 mmHg 92%

    23 Februarie, Duminică

    Timp Temperatura Precipitaţii Vânt Presiune Umiditate
    00:00 -1°C° 0.1 mm 7 m/s 746 mmHg 93%
    01:00 -1°C° 0.1 mm 6 m/s 746 mmHg 93%
    02:00 -1°C° 0.1 mm 6 m/s 746 mmHg 94%
    03:00 0°C° 0.1 mm 5 m/s 746 mmHg 94%
    04:00 0°C° 0.2 mm 5 m/s 745 mmHg 94%
    05:00 +1°C° 0.2 mm 5 m/s 745 mmHg 94%
    06:00 +1°C° 0.2 mm 4 m/s 745 mmHg 94%
    07:00 +1°C° 0 mm 4 m/s 745 mmHg 92%
    08:00 +1°C° 0 mm 4 m/s 745 mmHg 91%
    09:00 +1°C° 0 mm 4 m/s 746 mmHg 90%
    10:00 +3°C° 0 mm 4 m/s 746 mmHg 87%
    11:00 +4°C° 0 mm 4 m/s 746 mmHg 84%
    12:00 +4°C° 0 mm 4 m/s 746 mmHg 81%
    13:00 +4°C° 0.1 mm 3 m/s 745 mmHg 82%
    14:00 +5°C° 0.1 mm 3 m/s 745 mmHg 83%
    15:00 +5°C° 0.1 mm 3 m/s 744 mmHg 84%
    16:00 +5°C° 0.8 mm 2 m/s 743 mmHg 89%
    17:00 +5°C° 0.8 mm 2 m/s 742 mmHg 93%
    18:00 +4°C° 0.8 mm 2 m/s 741 mmHg 98%
    19:00 +4°C° 2.4 mm 3 m/s 740 mmHg 97%
    20:00 +4°C° 2.4 mm 4 m/s 739 mmHg 97%
    21:00 +5°C° 2.4 mm 4 m/s 738 mmHg 96%
    22:00 +5°C° 1.9 mm 6 m/s 737 mmHg 95%
    23:00 +5°C° 1.9 mm 7 m/s 736 mmHg 94%
    Arată mai mult